Regional Weather Roundup
Issued by NWS

Home | Current Version | Previous Version | Graphics & Text | Print | Product List | Glossary On
Versions: 1 2 3 4 5 6 7 8 9 10 11 12 13 14 15 16 17 18 19 20 21 22 23 24 25 26 27 28 29 30 31 32 33 34 35 36 37 38 39 40 41 42 43 44 45 46 47 48 49 50
000
ASUS43 KMPX 060510
RWRMN
WEATHER ROUNDUP FOR MINNESOTA
NATIONAL WEATHER SERVICE TWIN CITIES/CHANHASSEN MN
1200 AM CDT WED MAY 06 2015


NOTE: "FAIR" INDICATES FEW OR NO CLOUDS BELOW 12,000 FEET WITH NO
SIGNIFICANT WEATHER AND/OR OBSTRUCTIONS TO VISIBILITY. N/A MEANS
CURRENT SKY AND/OR WEATHER CONDITIONS ARE NOT AVAILABLE.

MNZ060>063-068>070-060600-
   Twin Cities Metro

CITY           SKY/WX    TMP DP  RH WIND       PRES   REMARKS
TWIN CITIES    CLOUDY    56  53  90 SE13      30.13S
ST PAUL        CLOUDY    56  53  90 SE12      30.14F
CRYSTAL        CLOUDY    58  53  84 SE9       30.12S
BLAINE         CLOUDY    59  54  82 SE7       30.13S
LAKEVILLE      CLOUDY    54  52  94 SE8       30.13S
EDEN PRAIRIE   CLOUDY    56  52  86 SE13      30.12S
SOUTH ST PAUL  LGT RAIN  57  53  89 SE7       30.13S
LAKE ELMO      CLOUDY    55  52  88 SE9G16    30.15F
$$
MNZ001>005-007-008-013>017-022>024-027-028-060600-
   Northwest Minnesota

CITY           SKY/WX    TMP DP  RH WIND       PRES   REMARKS
BEMIDJI        MOCLDY    62  42  47 SE12      30.06S
HALLOCK        CLEAR     61  27  27 SE10      29.97R
ROSEAU         PTCLDY    64  36  34 SE13      30.01S
WARROAD        MOCLDY    63  37  39 SE10      30.03S
THIEF RVR FALL PTCLDY    57  37  47 SE6       30.02S
CROOKSTON      PTCLDY    61  48  63 SE8       30.00S
FOSSTON        PTCLDY    61  43  51 SE9       30.03F
DETROIT LAKES  MOCLDY    61  52  72 S17       30.04F
MOORHEAD       MOCLDY    64  54  68 S15       30.01R
PARK RAPIDS    PTCLDY    61  43  51 SE8       30.06S
MAHNOMEN       FAIR      61  50  65 SE9       30.02S
$$
MNZ006-009>011-018-025>026-060600-
   North Central Minnesota

CITY           SKY/WX    TMP DP  RH WIND       PRES   REMARKS
BAUDETTE       PTCLDY    57  32  38 SE7       30.05F
FLAG ISLAND    MOCLDY    63  37  39 S8        30.03R
INTL FALLS     CLEAR     52  32  46 SE5       30.10R
WASKISH        MOCLDY    57  39  51 CALM      30.07S
BIG FORK       CLEAR     57  30  35 SE5       30.11S
LONGVILLE      PTCLDY    61  37  41 SE9G16    30.09S
GRAND RAPIDS   PTCLDY    55  28  35 SE6       30.13S
CRANE LAKE     CLEAR     54  23  30 SE3       30.16R
ORR            CLEAR     54  21  28 SE5       30.11S
COOK           CLEAR     54  27  35 SE3       30.15S
WALKER         FAIR      61  38  41 SE7       30.07S
$$
MNZ012-019>021-037-060600-
   Northeast Minnesota

CITY           SKY/WX    TMP DP  RH WIND       PRES   REMARKS
DULUTH         PTCLDY    50  27  40 E8        30.16F
ELY            CLEAR     48  25  40 CALM      30.16S
HIBBING        CLEAR     48  25  40 SE7       30.14F
EVELETH        CLEAR     45  27  49 CALM      30.16F
DULUTH HARBOR  PTCLDY    45  37  76 NE7       30.19S
TWO HARBORS    CLEAR     46  30  53 CALM      30.17S
SILVER BAY     CLEAR     45  27  49 CALM      30.17S
GRAND MARAIS     N/A     53  26  35 NE7       30.19S
G MARAIS ARPRT CLEAR     45  21  39 NE6       30.21S
$$
MNZ029>031-032-039>041-046>048-054>057-064-060600-
   West Central Minnesota

CITY           SKY/WX    TMP DP  RH WIND       PRES   REMARKS
FERGUS FALLS   CLOUDY    63  54  72 SE18      30.03S
WHEATON        CLOUDY    57  52  82 SE18      30.03S
MORRIS         CLOUDY    59  54  82 SE18      30.04R
ALEXANDRIA     CLOUDY    58  53  84 SE14      30.07F
ELBOW LAKE     CLOUDY    59  54  84 SE20      30.03S
WADENA         CLOUDY    61  50  67 SE9       30.06S
GLENWOOD       CLOUDY    57  54  88 SE16      30.08S
APPLETON       CLOUDY    59  54  82 SE10      30.03F
BENSON         CLOUDY    57  54  88 SE12      30.06S
ORTONVILLE     CLOUDY    57  52  82 SE16      30.02F
MADISON        CLOUDY    59  52  77 SE14      30.03S
WILLMAR        CLOUDY    57  54  88 SE15      30.08S
$$
MNZ033>034-036-042>043-049>051-058-059-060600-
   Central Minnesota

CITY           SKY/WX    TMP DP  RH WIND       PRES   REMARKS
ST CLOUD       CLOUDY    58  52  80 SE15G23   30.10F
SAUK CENTRE    CLOUDY    58  53  83 SE12      30.08F
PAYNESVILLE    CLOUDY    54  52  93 E9        30.09F
AITKIN         CLOUDY    63  34  34 SE12      30.10S
PINE RIVER     MOCLDY    61  43  51 SE13      30.11S
BRAINERD       CLOUDY    61  40  45 SE9       30.10S
STAPLES        CLOUDY    61  48  63 SE9       30.07F
LONG PRAIRIE   CLOUDY    59  52  77 SE12G20   30.08S
LITTLE FALLS   CLOUDY    61  50  67 SE12      30.10R
LITCHFIELD     CLOUDY    55  55 100 SE12G18   30.10S
BUFFALO        CLOUDY    56  51  85 SE7G16    30.13S
MAPLE LAKE     CLOUDY    57  54  90 E10G16    30.12S
$$
MNZ037-044-045-052-053-060600-
   East Central Minnesota

CITY           SKY/WX    TMP DP  RH WIND       PRES   REMARKS
PRINCETON      CLOUDY    61  52  72 SE12      30.12S
MORA           MOCLDY    59  37  44 SE5       30.15S
CAMBRIDGE      CLOUDY    63  48  59 SE9       30.11S
RUSH CITY      CLOUDY    59  43  55 SE8       30.14S
MOOSE LAKE     CLOUDY    52  32  46 CALM      30.13S
HINCKLEY       CLOUDY    61  36  39 SE7       30.14S
CLOQUET        MOCLDY    46  30  53 E3        30.16S
MCGREGOR       MOCLDY    54  34  47 SE6       30.13S
$$
MNZ071>073-080-081-089-090-097-098-060600-
   Southwest Minnesota

CITY           SKY/WX    TMP DP  RH WIND       PRES   REMARKS
MONTEVIDEO     CLOUDY    57  54  88 S17       30.06S
GRANITE FALLS  CLOUDY    56  52  86 E17G24    30.06F
CANBY          CLOUDY    58  55  87 SE13      30.03F
MARSHALL       CLOUDY    57  52  82 SE17      30.03S
REDWOOD FALLS  CLOUDY    56  53  90 SE13      30.06F
OLIVIA         CLOUDY    54  50  87 SE15G21   30.07S
PIPESTONE      CLOUDY    57  55  94 SE14      30.01F
WINDOM         CLOUDY    55  54  94 SE10      30.05F
WORTHINGTON    CLOUDY    55  54  94 SE14      30.05R VSB 1/2
JACKSON        DRZL/FOG  55  54  94 SE12      30.07S VSB 1/2
TRACY          CLOUDY    57  56  94 SE13      30.04F FOG
SLAYTON        FOG       55  55 100 SE14      30.04F VSB 3/4
$$
MNZ065>067-074>077-082>085-091>093-060600-
   South Central Minnesota

CITY           SKY/WX    TMP DP  RH WIND       PRES   REMARKS
MANKATO        CLOUDY    55  54  94 SE12      30.10S
NEW ULM        CLOUDY    55  54  94 SE9       30.08S
ST JAMES       CLOUDY    55  55 100 E14       30.08F FOG
FAIRMONT       CLOUDY    55  52  88 SE14G20   30.07F VSB 3/4
GLENCOE        CLOUDY    56  54  94 SE13      30.11S
FARIBAULT      CLOUDY    54  54 100 SE14G20   30.13S
OWATONNA       CLOUDY    54  52  94 SE10      30.12F FOG
WASECA         CLOUDY    54  52  94 E14       30.11F FOG
ALBERT LEA     FOG       54  54 100 SE13      30.12S VSB 1/4
$$
MNZ078>079-086>088-094>096-060600-
   Southeast Minnesota

CITY           SKY/WX    TMP DP  RH WIND       PRES   REMARKS
ROCHESTER      FOG       53  52  96 SE12      30.16S VSB 1/2
RED WING       CLOUDY    55  54  94 SE13      30.14S
STANTON        CLOUDY    56  52  86 SE10      30.13S
DODGE CENTER   FOG       54  54 100 SE15      30.14F VSB 1/2
WINONA         CLOUDY    54  52  94 SE8       30.18S
AUSTIN         FOG       54  52  94 SE9       30.13F VSB 1/2
PRESTON        FOG       52  51  97 SE9       30.16F VSB 1/2
$$
ABBREVIATIONS USED IN REMARKS
   TC - TEMPERATURES IN CELSIUS
  WCI - WIND CHILL INDEX
   HX - HEAT INDEX
  VSB - VISIBILITY
$$


USA.gov is the U.S. government's official web portal to all federal, state and local government web resources and services.